Location: Newark
(34.6000°N, 98.3833°W)
Time: 21:52:48
(UTC+00:00)

ISS - Visible Passes

Search period start: 15 October 2019 00:00
Search period end: 25 October 2019 00:00
Orbit: 411 x 421 km, 51.6° (Epoch: 15 October)

Date Brightness Start Highest point End Pass type
(mag) Time Alt. Az. Time Alt. Az. Time Alt. Az.
21 Oct -0.4 11:46:28 10° SSE 11:47:37 11° SE 11:48:46 10° ESE visible
23 Oct -2.2 11:43:47 10° SSW 11:46:55 37° SE 11:50:03 10° ENE visible
24 Oct -1.2 10:56:57 15° SSE 10:58:28 19° SE 11:00:58 10° E visible
